Theta_e
315 315 314 314 315 315 315 316 315 315 316 317 317 317 316 316 317 321 324 324 325 324 322 322 322 322 324 326 329 330 330 332 331 330 331 331 331 330 330 330 330 330 331 331 329 328 328 326 325 325 326 327 327 326 326 325 325 324 323 322 322 322 323 322 321 320 320 319 320 321 323 324 325 325 326 327 326 326 326 326 326 326 326 327 327 327
315 315 314 315 315 315 315 315 314 315 316 317 316 315 315 315 317 321 323 323 324 323 321 321 321 320 323 325 327 329 330 332 331 330 330 331 330 330 330 331 331 331 330 329 329 328 327 327 327 327 326 326 326 325 324 325 324 323 323 322 323 322 322 322 321 321 320 320 320 321 321 323 325 324 325 326 325 325 325 326 326 326 326 326 326 326
315 314 315 315 315 314 315 315 314 315 316 316 315 314 313 315 318 319 321 323 323 320 319 320 319 319 324 325 326 327 327 329 330 329 329 330 330 330 330 331 333 332 329 327 328 328 327 327 327 327 326 325 325 324 324 323 322 322 322 322 322 322 323 322 322 321 320 320 322 322 323 324 325 325 325 324 324 324 326 326 326 326 326 327 326 326
313 314 315 314 314 314 314 314 314 315 315 315 315 313 312 315 316 315 318 322 322 320 321 321 319 319 323 323 324 325 325 326 328 328 329 329 329 330 330 331 333 332 330 329 329 329 329 328 327 327 327 325 325 324 323 322 322 321 321 321 321 322 322 322 321 320 321 322 323 324 325 325 325 325 325 324 324 324 325 325 326 326 326 326 326 326
313 314 313 313 314 315 314 314 314 314 314 315 314 313 312 314 314 313 317 322 322 321 322 321 317 317 320 321 321 323 324 326 328 328 329 328 329 331 331 330 331 331 331 330 330 330 330 329 328 327 326 325 324 324 323 322 321 321 321 321 320 321 321 321 321 321 321 322 323 324 325 326 326 325 324 324 324 323 324 325 325 326 326 326 326 327
314 314 313 313 314 314 314 314 314 314 313 313 315 315 314 315 315 315 318 319 317 317 319 318 315 316 318 319 319 321 323 327 329 329 328 328 330 331 331 330 330 331 331 331 331 330 331 329 328 327 326 326 325 324 324 322 321 321 320 320 320 320 321 321 322 322 322 322 323 324 325 325 325 324 323 323 323 324 324 325 325 325 326 326 327 328
315 314 313 314 314 314 315 314 315 315 312 312 314 315 315 315 315 315 317 316 313 315 321 319 316 315 315 317 319 319 321 324 328 329 327 327 329 329 329 329 329 329 328 330 331 331 332 330 329 328 326 325 325 324 323 322 321 321 321 321 320 320 319 320 321 321 321 322 323 324 324 325 325 323 322 323 324 324 324 325 325 325 326 327 327 328
316 315 314 314 314 314 313 313 315 315 313 312 315 315 315 315 315 315 316 315 313 316 320 320 316 314 313 316 319 320 320 323 325 326 326 326 328 328 328 329 329 328 327 329 330 330 331 331 329 328 326 326 325 323 322 322 321 321 321 320 320 319 319 320 321 321 321 322 323 324 324 324 323 322 322 322 323 324 324 324 324 325 326 327 326 326
317 316 315 314 314 314 314 314 315 315 314 314 315 315 315 315 315 315 315 314 314 314 314 317 317 314 312 316 321 321 319 320 322 323 325 324 326 327 327 329 328 327 327 328 329 329 331 331 330 328 327 326 325 323 322 321 321 321 320 320 319 319 319 320 320 321 321 321 322 324 324 323 321 321 322 322 323 323 324 324 324 325 325 326 326 326
316 316 316 315 315 315 315 316 315 315 315 315 315 315 315 315 315 316 315 313 314 313 312 315 317 314 312 313 318 320 318 318 321 322 323 323 323 325 325 326 327 327 327 327 328 331 332 332 330 329 327 326 325 323 322 322 321 321 320 320 319 318 318 319 320 320 320 321 322 322 323 322 321 321 322 323 323 323 323 323 324 324 325 325 325 325
316 315 316 315 315 316 315 315 314 314 315 315 315 315 315 315 315 316 315 313 313 313 312 314 315 314 313 312 314 319 319 319 320 322 323 323 323 324 324 324 325 326 328 326 327 331 332 332 331 329 327 326 325 324 322 322 321 320 320 320 318 317 318 318 319 320 320 321 322 322 322 321 321 321 322 322 323 323 323 323 323 323 324 324 324 324
315 316 316 314 314 315 316 315 315 314 314 315 316 315 313 313 314 313 314 313 312 312 313 314 315 314 312 312 314 318 319 319 319 320 322 323 322 324 324 324 323 324 326 326 327 329 332 332 330 329 328 327 326 323 322 321 321 320 321 319 317 317 318 318 319 319 319 320 321 321 321 320 320 320 321 322 323 323 323 322 322 323 323 323 323 323
316 316 316 314 314 315 315 315 314 314 315 315 314 313 312 312 312 312 312 313 312 312 314 314 314 314 313 313 316 318 318 319 319 319 320 322 323 323 324 323 323 324 325 326 328 329 331 332 331 329 329 327 326 324 322 322 321 321 320 318 316 317 318 318 318 318 318 320 320 320 321 320 319 320 320 321 322 322 322 322 322 322 322 322 322 322
313 316 316 315 314 315 315 314 313 313 314 315 313 311 311 311 312 312 312 312 312 313 315 316 315 313 312 315 318 319 319 319 320 320 321 322 324 324 324 324 324 326 328 329 330 330 331 332 331 330 329 328 326 324 323 322 320 321 320 317 316 317 318 318 318 318 318 319 320 320 320 319 319 319 320 321 322 322 322 322 322 321 321 321 321 321
312 314 316 315 315 315 315 314 313 314 314 315 315 313 312 312 312 312 312 311 312 313 315 317 316 313 313 317 319 318 319 319 319 320 321 322 323 324 325 324 326 328 330 331 330 330 331 332 331 330 330 329 327 325 323 321 320 321 320 318 317 317 317 318 317 318 318 319 319 318 318 318 318 318 319 321 321 321 321 321 321 321 320 320 320 319
312 313 315 315 315 315 315 315 316 315 314 316 316 313 312 313 313 313 315 317 315 314 314 315 315 314 315 318 318 318 318 318 319 321 321 322 322 324 325 326 328 329 332 331 330 330 331 332 331 331 331 329 327 325 323 322 321 320 319 318 317 317 317 317 317 317 318 318 317 316 317 318 318 319 320 321 321 321 321 320 320 319 318 317 317 317
312 313 316 316 315 316 314 315 316 314 314 316 314 312 314 316 315 313 316 319 317 315 314 314 314 314 315 317 317 317 318 318 320 320 321 322 324 325 327 328 327 328 329 330 331 331 332 333 331 331 331 329 327 325 323 322 321 320 319 318 317 316 316 316 316 317 318 318 317 316 317 318 318 319 320 321 320 320 319 319 318 317 316 315 314 314
313 313 315 316 316 315 314 315 316 314 315 315 313 313 316 317 316 314 315 316 316 315 315 313 313 312 312 314 317 317 318 319 319 319 320 323 325 326 328 329 328 328 328 329 329 331 332 333 331 331 331 329 327 325 323 322 321 319 318 318 316 316 316 317 317 318 317 317 316 316 317 318 318 320 320 320 320 319 317 316 315 315 314 313 313 312
316 313 314 317 316 315 315 315 315 315 316 314 314 316 315 314 314 314 315 315 315 315 314 312 313 312 310 311 315 317 318 320 319 319 319 321 322 323 325 327 329 329 330 329 329 329 331 332 331 331 330 328 326 324 323 322 320 319 319 318 317 317 317 317 317 318 317 317 316 315 316 317 318 320 320 319 318 317 315 315 314 314 313 313 312 312
318 315 313 315 317 316 315 315 314 315 316 315 316 317 316 315 314 314 315 315 314 315 314 313 312 311 311 314 315 317 319 320 320 320 320 321 321 321 322 326 328 330 330 330 328 328 330 332 330 331 329 328 325 322 321 320 318 318 319 319 318 317 317 317 317 318 318 317 316 315 316 317 318 319 319 318 316 315 314 314 314 314 313 312 311 311
318 316 313 315 316 315 314 315 315 315 315 315 315 315 316 317 315 315 314 313 313 313 313 314 313 310 313 317 317 318 320 320 320 320 321 320 322 323 326 328 329 330 331 330 328 327 329 331 330 330 329 327 325 321 319 319 317 318 319 318 319 317 316 317 318 318 318 317 316 315 316 317 318 318 318 316 315 314 314 314 313 313 313 312 311 310
318 317 314 314 315 313 314 317 316 316 316 316 315 315 316 316 315 315 315 313 313 312 312 313 313 312 314 318 318 318 320 320 319 320 320 320 322 325 329 331 331 330 331 331 328 328 329 330 329 329 328 327 325 321 319 318 317 318 318 318 318 317 316 317 318 318 318 317 316 316 316 317 318 317 316 315 314 314 314 313 313 313 312 312 311 310
321 319 315 314 315 316 317 317 316 316 317 317 317 318 318 318 315 314 315 314 314 314 313 313 313 314 317 320 321 321 321 320 320 321 320 320 322 326 329 330 330 330 330 330 329 328 329 329 329 327 327 326 325 322 319 318 317 317 318 318 318 317 317 317 318 318 318 318 317 316 316 317 317 316 316 315 314 314 314 313 313 312 312 312 310 309
322 320 316 315 316 317 317 317 317 317 319 318 318 319 319 319 317 317 318 317 316 314 314 315 315 315 319 322 322 322 322 322 323 323 321 320 322 326 327 328 329 329 330 330 329 328 329 329 328 327 326 326 325 323 320 317 317 318 318 318 318 318 317 317 318 317 317 317 317 316 316 316 317 316 316 315 314 314 313 312 312 312 311 311 309 310
320 319 318 316 317 318 318 319 318 318 319 319 319 320 319 319 320 321 319 318 318 316 314 315 315 314 318 322 321 320 321 321 321 322 322 322 322 324 325 327 328 329 330 329 328 328 328 328 328 327 326 326 325 324 321 318 318 318 319 318 318 318 318 318 317 317 317 317 317 316 316 316 317 316 315 315 314 313 312 312 312 312 311 310 309 310
320 320 319 317 319 320 319 320 319 318 318 318 319 320 319 319 321 320 318 317 318 317 316 317 316 315 319 321 320 319 320 319 319 321 322 321 322 322 324 326 328 328 329 329 329 329 328 328 327 326 326 325 325 324 323 320 318 318 319 320 319 319 319 318 317 317 317 317 317 316 316 316 317 316 316 315 314 313 312 312 312 311 310 309 308 310
320 321 321 319 319 319 318 319 320 319 318 319 319 319 319 319 320 320 319 318 317 317 317 318 318 317 318 320 320 320 319 319 320 319 319 320 322 322 323 324 325 326 327 327 328 329 328 328 328 326 326 325 325 324 324 321 318 317 319 320 320 320 319 318 318 317 317 317 317 316 316 316 316 316 316 315 313 312 312 312 311 310 308 307 308 309
321 319 321 322 320 319 319 319 320 320 320 320 320 319 319 319 321 321 320 319 319 319 319 319 319 319 319 320 320 320 320 320 319 319 320 320 322 322 322 322 323 324 326 327 327 328 328 328 328 327 326 325 325 325 324 322 318 317 318 320 321 320 320 319 318 317 317 317 316 316 316 316 316 316 316 315 313 312 312 312 311 309 307 307 308 308
321 319 321 322 321 321 320 319 319 320 320 320 320 320 320 320 321 322 322 321 321 320 320 320 320 321 321 321 320 320 320 320 319 320 321 321 321 321 320 321 321 322 323 325 326 327 328 328 328 328 327 326 325 324 324 322 319 317 318 320 321 320 320 320 319 318 317 317 316 316 315 316 316 316 316 314 313 312 312 311 310 308 306 306 307 308
321 319 322 322 321 322 320 319 319 319 320 320 320 320 320 320 320 321 321 320 320 321 321 321 322 322 321 321 320 320 319 319 320 321 320 320 320 320 320 321 320 320 321 323 325 326 327 327 328 329 327 326 326 325 324 323 320 317 319 321 321 320 320 320 319 318 317 317 317 316 316 316 316 315 315 314 313 312 312 310 309 306 305 305 306 307
321 320 322 322 321 322 321 320 319 319 320 320 320 319 319 319 319 319 320 321 321 321 321 321 322 322 320 320 319 319 319 320 320 320 320 320 320 321 321 320 320 319 319 320 322 324 327 327 328 329 328 327 326 325 324 323 321 318 319 321 320 320 320 320 319 318 317 317 317 316 316 316 315 315 315 313 312 312 311 310 308 306 304 304 305 306
321 320 322 322 321 320 320 320 319 320 320 320 320 321 320 319 319 319 320 320 321 321 321 321 322 321 320 319 319 319 320 320 320 320 320 320 320 321 320 320 320 320 319 320 321 323 325 326 327 329 328 327 326 325 324 323 322 320 320 321 320 320 320 320 319 319 317 317 317 316 316 316 315 314 314 313 312 312 311 310 308 305 303 303 304 304
321 321 320 321 320 320 320 321 321 320 320 319 320 321 321 319 319 319 320 320 320 320 319 319 320 319 319 319 319 319 320 320 320 320 320 321 321 322 321 320 320 319 319 320 320 321 324 325 326 327 328 327 326 325 323 323 322 321 321 320 319 319 319 319 320 319 317 317 317 315 315 316 315 314 313 312 312 312 311 309 308 305 302 302 303 304
322 321 320 320 320 320 322 322 321 321 321 320 319 319 319 319 319 320 320 320 320 319 319 318 318 318 319 319 319 320 320 320 320 320 320 321 321 321 322 321 321 320 320 321 321 322 323 325 325 326 326 326 325 324 323 323 323 322 320 319 319 319 320 319 319 319 317 317 317 316 315 315 315 314 313 312 312 312 310 309 307 304 301 300 302 303
322 321 320 320 320 320 321 322 322 322 321 320 319 319 319 318 318 320 320 320 320 319 319 319 318 318 319 319 320 320 320 319 319 319 320 321 321 322 322 322 323 322 322 323 324 324 325 325 325 325 326 325 325 324 323 323 323 322 320 319 319 320 320 319 319 319 317 317 317 315 315 315 314 314 313 313 312 312 311 309 307 304 300 299 301 303
322 322 321 320 320 321 320 321 321 322 320 320 321 321 319 319 320 321 320 319 319 319 319 319 319 318 319 319 319 319 319 319 319 320 320 321 322 322 322 322 323 323 324 324 325 326 326 326 325 325 325 325 324 323 323 323 322 321 320 320 320 320 320 319 319 319 317 317 317 316 315 314 315 314 313 313 312 312 311 309 307 304 300 299 300 301
321 321 321 321 321 320 320 320 320 320 319 320 322 321 320 320 320 320 319 319 318 319 319 319 319 318 318 319 318 319 319 318 319 319 319 320 321 322 322 322 323 323 324 324 324 325 325 326 326 326 325 324 324 323 323 322 322 321 320 320 319 319 319 319 319 318 318 317 317 316 315 314 314 315 314 313 313 312 311 309 307 304 301 299 299 299
319 320 320 320 320 319 319 320 320 320 320 319 320 321 321 321 320 320 319 319 318 318 318 319 319 319 318 319 318 319 319 318 318 319 319 319 320 321 322 323 323 324 323 324 324 324 325 325 325 325 325 324 323 323 322 321 320 320 320 319 319 319 319 319 318 318 318 317 317 316 315 314 315 315 315 314 313 313 312 310 307 304 301 300 299 299
320 320 319 319 319 318 319 320 320 320 320 319 319 320 320 320 320 320 319 318 318 318 319 319 319 319 319 319 319 319 318 318 318 318 319 319 319 320 322 322 323 324 323 323 323 324 325 325 324 324 324 324 323 322 321 320 320 320 320 319 319 319 319 318 318 317 317 317 316 316 315 314 314 315 314 314 313 313 312 311 308 305 302 300 300 299
321 320 319 319 319 319 319 320 320 319 319 319 320 319 318 319 320 320 318 317 318 319 319 318 319 319 319 319 319 319 318 318 318 318 319 319 319 320 322 323 324 323 323 323 322 323 323 323 323 323 323 324 324 322 321 320 319 319 320 320 319 319 319 319 318 317 317 317 316 315 315 314 314 314 314 314 314 313 312 311 309 306 303 301 301 300
320 319 318 319 318 319 319 320 319 318 318 319 320 318 318 319 319 319 319 318 318 319 319 319 319 319 319 319 318 318 318 318 319 319 319 319 319 320 321 323 324 324 323 323 321 320 322 322 322 323 322 323 323 321 319 319 319 319 320 319 319 320 319 319 319 317 317 317 316 315 315 314 314 315 314 313 314 313 312 311 310 308 305 303 302 302
319 319 318 319 318 318 318 319 319 318 319 321 320 319 318 319 319 319 319 318 319 318 318 319 319 318 319 318 319 318 318 318 318 318 319 319 319 319 319 320 321 323 325 324 320 319 322 323 323 322 322 321 321 320 319 319 319 319 319 319 320 320 319 319 319 317 317 317 316 316 315 314 314 314 314 313 313 313 312 311 311 309 306 304 303 304
319 319 319 319 319 318 318 319 319 319 320 321 320 318 318 318 319 318 318 318 318 318 318 318 318 318 318 318 318 318 318 318 318 319 318 319 319 319 320 320 320 320 324 326 323 321 321 322 322 323 322 321 320 318 318 318 319 319 319 319 320 319 319 319 318 317 317 317 316 315 315 315 315 314 314 313 313 313 312 311 311 310 308 305 305 305
318 318 318 318 318 318 319 319 319 319 319 320 319 318 318 318 318 319 319 317 318 318 318 317 318 318 318 318 318 318 318 318 319 319 318 319 319 318 319 320 320 320 321 323 325 324 322 321 322 323 322 321 319 318 318 318 319 319 319 319 320 319 318 319 318 317 317 316 316 315 315 315 315 314 313 314 314 313 312 311 311 310 309 307 306 306
318 319 319 318 318 318 318 318 319 319 319 319 318 318 319 319 320 322 321 318 317 317 317 317 318 318 318 318 318 318 318 318 318 319 318 318 319 319 319 319 320 321 320 321 324 325 323 322 324 324 323 321 319 318 318 318 319 319 319 319 319 318 318 318 317 317 317 316 316 316 315 315 314 313 313 314 314 313 312 312 311 311 310 308 307 306
318 319 319 318 318 319 318 319 319 319 318 318 318 319 320 320 321 321 320 318 317 317 317 317 317 317 318 318 318 318 318 318 318 319 318 319 318 319 320 321 321 321 321 321 323 325 324 323 324 324 325 323 320 318 318 317 318 319 319 319 318 318 318 317 317 317 316 316 316 316 315 315 314 313 313 313 313 313 313 312 312 311 310 309 308 307
318 318 319 318 318 319 320 319 319 319 319 319 318 318 319 319 319 319 319 318 317 317 317 317 318 318 317 318 317 318 318 318 318 318 318 318 319 318 319 321 320 320 321 321 322 325 325 324 323 323 324 324 322 320 318 318 318 318 319 318 318 317 317 316 316 317 316 316 316 315 314 314 313 313 313 313 313 313 313 313 312 311 310 310 309 308
317 317 318 318 318 319 319 319 318 319 318 318 318 317 316 317 317 318 319 318 318 318 317 317 318 318 317 318 317 318 318 318 318 318 318 318 319 318 319 319 319 319 319 321 323 325 324 323 322 322 323 324 323 321 319 318 317 318 318 318 317 316 316 316 316 316 316 316 316 316 315 314 313 313 313 313 312 312 313 313 312 311 310 310 310 309
316 316 317 317 317 318 317 317 317 318 318 317 317 317 317 317 317 317 318 317 317 317 317 317 318 317 317 317 318 318 318 318 317 318 318 318 318 318 319 319 318 318 319 319 323 325 324 322 322 322 322 322 323 322 320 318 318 317 317 318 317 316 316 316 316 316 316 316 316 316 314 314 313 312 312 312 312 312 312 312 312 311 311 311 310 310
316 316 316 316 316 316 316 316 317 318 318 317 317 317 317 317 317 317 316 316 315 315 316 316 317 317 316 317 317 317 318 318 318 318 318 317 318 319 319 319 318 318 319 320 323 325 324 322 322 322 322 322 322 322 321 319 318 317 316 317 316 315 316 316 315 315 316 316 316 316 314 314 313 312 311 312 312 312 312 312 311 311 311 311 310 309
315 315 315 315 315 316 315 316 315 316 316 316 315 315 315 315 316 315 316 316 315 315 315 315 315 315 315 315 316 317 317 317 318 319 318 318 318 319 319 319 319 319 319 320 322 323 323 323 323 322 322 322 322 322 321 320 318 317 316 316 316 315 315 316 315 315 316 316 315 315 314 313 313 312 311 311 312 312 311 311 311 310 310 310 310 309
Wind_Speed
3 4 3 1 3 2 1 2 3 3 1 3 4 4 4 4 4 6 3 1 3 7 5 3 4 3 3 3 5 6 6 6 6 6 6 5 5 5 6 6 7 7 7 8 10 9 9 11 14 10 6 5 7 7 8 8 7 7 7 7 6 5 4 4 4 4 3 3 3 3 3 2 3 3 3 4 5 6 6 7 7 7 7 7 7 6
5 3 3 5 5 3 2 0 1 1 3 4 4 4 4 3 2 6 3 2 2 5 3 2 6 5 4 3 4 6 8 8 7 7 7 7 6 5 6 7 7 7 8 10 11 11 10 10 13 12 9 7 7 8 8 8 8 7 7 7 6 5 5 4 4 4 4 4 3 3 3 2 3 4 4 5 6 6 6 7 7 7 7 7 7 7
4 2 7 5 3 2 2 2 3 3 4 4 2 1 2 3 3 5 3 2 2 4 2 2 6 4 2 3 4 7 9 7 7 7 7 7 8 7 7 7 8 8 9 10 11 12 11 11 12 11 9 8 7 8 8 8 8 8 7 6 5 5 4 4 4 4 4 4 3 3 3 3 3 4 5 5 5 6 6 6 7 7 7 6 6 7
1 5 7 3 0 2 3 3 4 4 4 3 1 1 1 4 4 3 4 3 3 3 3 3 6 4 2 4 6 8 9 7 7 8 7 7 7 7 7 7 8 10 10 11 12 12 13 13 13 11 10 9 8 8 8 9 8 7 7 6 6 5 4 4 4 4 4 3 3 3 3 3 3 4 4 4 5 6 6 6 7 7 7 7 6 6
4 7 5 1 1 3 2 5 6 4 3 2 2 2 1 4 4 0 5 5 3 4 4 5 6 5 4 6 6 7 8 8 7 8 8 8 7 7 8 8 9 11 11 11 12 12 14 14 13 12 11 11 10 9 9 9 8 8 7 7 6 5 5 5 4 4 4 3 4 3 3 3 4 4 5 5 5 6 6 6 7 7 8 8 8 7
6 5 2 2 2 3 3 4 4 3 1 2 2 3 0 6 6 2 5 6 4 5 5 6 6 3 5 6 6 5 7 9 8 8 9 8 8 8 9 10 11 11 11 11 12 13 14 14 13 13 12 12 11 10 9 9 8 8 8 7 6 5 5 5 4 4 4 4 5 4 4 4 4 5 6 6 6 7 7 7 8 8 8 9 10 9
4 3 1 3 2 3 4 3 2 3 3 2 2 1 2 6 6 3 6 6 3 0 4 6 6 2 3 6 6 5 7 9 8 9 9 7 8 9 10 11 11 12 12 11 12 13 14 15 15 14 14 13 11 11 10 9 9 8 8 7 6 5 5 4 4 4 4 4 5 5 4 4 5 5 6 5 5 6 7 7 8 8 9 10 11 10
2 2 2 2 3 5 4 2 4 4 5 2 3 3 5 6 6 4 6 5 3 2 2 6 6 5 3 3 4 6 9 9 9 10 9 8 9 10 11 12 12 13 14 13 12 13 15 16 16 16 15 13 12 12 11 10 9 9 8 7 6 5 5 5 4 4 4 4 4 4 4 4 4 5 5 5 5 6 6 7 8 8 9 9 10 11
1 1 1 1 4 4 2 6 4 3 4 4 3 4 5 5 5 4 5 5 2 3 4 5 5 6 5 2 5 5 8 8 9 9 10 10 10 11 11 11 12 14 14 13 13 14 16 17 17 16 15 13 13 12 11 11 10 9 8 7 6 6 5 5 5 4 5 5 4 4 4 4 4 4 4 4 5 6 7 7 8 9 8 8 9 10
2 2 3 3 4 2 7 9 5 4 3 5 4 4 4 4 6 4 5 4 3 5 5 2 5 5 5 1 3 4 5 5 5 5 7 10 11 11 11 11 12 12 13 13 13 15 17 18 17 16 15 14 13 12 12 11 10 10 9 7 6 6 5 5 5 5 5 5 4 4 5 4 4 4 4 4 5 6 7 7 8 8 8 7 8 9
5 1 1 2 3 4 6 5 4 5 3 4 6 5 5 4 4 4 4 4 4 5 2 1 4 5 5 2 1 1 1 3 3 0 2 6 10 11 11 12 12 11 11 12 13 15 17 17 17 17 16 16 14 13 12 11 10 10 9 8 7 6 6 5 5 5 5 5 4 4 4 4 4 4 4 5 5 6 7 7 8 8 7 7 8 8
6 5 3 2 2 1 1 3 4 2 1 4 5 4 4 3 3 4 4 4 5 3 2 2 3 6 5 3 1 2 1 2 4 2 1 3 7 9 10 11 12 11 11 11 12 13 16 17 17 17 17 16 15 14 13 12 11 10 9 9 8 7 7 5 5 5 4 4 4 4 4 4 4 4 4 5 5 6 6 7 8 7 7 7 7 8
5 4 5 4 2 2 4 3 4 4 4 5 6 4 4 4 4 4 4 4 5 1 3 1 2 4 6 5 4 5 4 3 3 4 4 2 4 6 9 10 10 10 11 11 11 12 13 15 17 18 18 17 16 15 15 13 12 11 10 9 9 9 7 6 5 5 4 4 3 3 3 4 4 4 4 4 5 6 6 7 8 8 8 7 8 9
3 5 6 5 4 1 5 5 2 3 5 5 5 4 4 4 4 5 4 4 4 1 4 1 2 5 5 3 2 4 4 4 3 4 4 3 4 4 6 8 8 8 9 9 10 11 11 14 17 18 18 18 17 17 16 14 13 12 11 10 10 10 9 7 6 5 4 4 3 3 3 4 4 4 4 4 5 6 6 7 8 8 8 8 8 9
1 3 3 1 2 1 4 4 5 4 3 3 3 5 5 4 5 5 4 5 4 3 1 3 3 4 2 2 2 3 2 3 3 3 3 3 4 4 4 6 7 8 9 9 10 12 13 16 18 18 19 18 18 18 17 15 14 13 12 11 10 11 10 8 7 6 5 4 3 3 4 4 3 3 3 3 4 6 7 7 8 8 8 8 8 8
4 0 5 4 2 1 2 0 4 6 4 1 2 6 4 3 4 3 2 4 5 5 3 3 3 4 3 3 4 4 5 4 3 3 3 3 5 6 5 6 7 8 9 10 10 11 13 17 19 19 19 18 18 19 18 16 16 15 14 12 10 10 10 9 8 6 5 4 4 4 4 4 3 2 2 2 3 6 7 7 7 7 7 8 8 8
4 1 6 4 3 1 1 0 2 5 3 1 3 4 1 2 4 4 1 1 2 6 4 2 4 4 3 2 1 2 3 1 3 2 2 3 5 6 6 6 7 7 8 8 9 9 12 16 17 18 19 19 19 20 19 18 16 15 15 13 10 10 10 9 8 7 6 5 4 4 4 4 3 2 2 3 5 6 6 6 6 6 7 8 8 8
4 1 5 3 3 4 1 2 2 2 4 4 3 1 2 0 3 4 4 2 4 6 3 2 6 5 3 1 2 2 1 2 3 2 2 3 5 5 5 6 6 6 7 7 8 8 10 14 16 17 18 19 20 20 20 18 16 15 16 14 11 11 11 10 9 8 6 5 4 4 3 3 3 2 2 4 5 6 5 6 6 6 7 8 8 8
3 3 4 4 2 5 4 5 4 3 1 4 3 1 2 4 3 3 4 4 5 6 4 4 5 4 4 2 1 1 1 2 2 1 1 3 4 5 5 6 6 6 6 6 7 7 9 12 15 16 17 18 20 20 20 19 17 16 16 14 12 11 11 10 9 8 7 5 4 4 2 2 2 2 3 5 6 5 5 6 6 7 8 8 7 7
2 4 2 5 4 3 5 6 4 3 3 2 2 3 3 4 4 4 4 4 5 6 6 6 5 4 3 0 2 2 2 3 4 4 3 1 2 3 3 4 5 5 5 5 6 7 8 10 13 15 16 18 19 20 19 19 18 17 17 15 12 12 11 11 10 9 8 6 5 4 2 2 2 3 4 5 6 5 6 6 6 7 7 8 7 7
2 3 2 3 5 4 4 1 3 4 2 3 4 4 3 2 3 4 5 4 5 7 6 6 6 4 0 2 2 3 3 3 4 5 5 4 1 1 1 1 3 4 4 5 5 6 7 10 11 13 15 16 18 18 18 19 18 18 17 15 14 13 12 12 11 9 8 7 5 4 2 2 3 4 4 5 6 6 6 6 6 6 6 7 7 6
2 3 4 3 3 4 1 5 4 5 5 5 5 5 5 4 4 5 6 5 4 6 6 6 7 4 1 1 2 2 1 2 4 4 5 5 3 1 1 1 2 3 4 5 6 6 7 9 12 13 14 16 17 18 18 18 18 18 17 16 15 14 13 12 11 10 9 7 5 4 3 3 4 4 5 6 6 6 5 5 4 4 5 6 6 6
2 3 5 6 4 2 3 4 2 1 2 4 4 4 5 5 6 7 7 5 4 6 5 6 8 5 1 3 2 1 0 2 3 4 5 5 4 3 1 1 2 3 4 5 6 6 7 10 12 13 14 16 17 18 18 18 18 18 17 16 15 14 13 12 11 11 10 8 6 4 4 4 4 5 6 6 6 5 4 4 3 3 4 5 5 4
2 3 5 6 4 1 3 4 3 3 4 4 2 2 3 4 5 6 7 6 5 6 6 6 8 5 3 5 3 3 1 1 2 2 4 5 5 3 2 1 2 3 4 5 5 6 8 10 12 13 14 16 17 18 19 18 18 18 17 17 16 15 14 12 11 11 10 9 7 5 4 4 5 6 6 6 5 5 4 4 3 3 4 5 4 3
2 2 3 6 6 3 4 4 4 4 4 3 2 1 2 3 4 5 6 6 6 10 10 8 8 4 4 5 3 3 2 3 3 1 2 4 5 4 3 1 1 2 3 5 6 7 8 9 11 12 14 15 17 18 19 19 19 18 18 17 16 15 15 13 12 11 11 10 8 6 5 5 6 6 6 6 6 5 4 3 3 3 4 4 3 3
3 2 3 6 7 5 5 4 2 2 3 4 2 2 3 4 5 5 6 6 7 10 10 8 9 7 2 5 4 4 5 6 5 3 3 3 4 5 4 3 1 2 4 5 7 7 8 9 10 12 13 15 16 18 19 20 20 19 18 17 15 15 15 14 13 12 11 10 9 7 6 6 6 7 7 7 7 5 2 2 2 3 3 3 3 3
3 3 4 6 7 7 8 7 4 4 7 7 5 5 6 5 5 6 6 7 7 8 9 9 10 11 9 7 8 8 8 8 7 7 7 6 5 5 5 4 3 3 4 5 7 7 8 8 9 11 13 14 15 17 18 20 21 20 18 18 16 16 15 14 14 13 12 11 9 8 7 7 7 8 8 8 7 4 2 2 2 2 3 3 3 4
4 5 4 5 7 8 8 7 4 3 7 9 9 9 9 7 7 7 8 9 9 8 9 9 10 12 11 10 10 9 9 9 10 10 10 8 7 7 7 7 6 6 5 6 7 8 9 9 9 11 14 14 15 16 17 19 21 20 18 18 18 17 16 15 15 14 13 12 10 9 8 8 8 8 9 8 7 5 4 3 2 2 3 3 3 4
5 5 2 4 7 7 7 7 5 5 8 9 10 11 11 10 10 10 11 12 11 11 12 12 13 13 11 10 11 11 11 12 12 11 10 9 9 9 9 9 9 8 7 8 9 9 10 10 10 12 14 15 16 17 18 19 21 20 18 17 18 18 17 17 16 15 14 12 11 10 9 9 8 8 9 9 7 6 5 4 2 2 3 4 4 4
5 4 3 4 8 8 9 9 7 8 10 10 12 13 12 13 13 13 13 13 14 15 16 16 18 17 13 12 13 13 12 11 10 10 9 10 9 8 7 8 10 10 9 8 8 9 10 10 11 12 14 16 17 18 18 19 21 21 19 18 19 18 18 17 17 16 14 13 12 11 10 10 9 9 10 9 7 6 6 5 3 3 4 4 4 4
4 2 3 4 7 8 9 8 7 9 10 11 13 14 13 13 13 13 13 12 12 14 15 16 17 16 12 11 11 10 8 8 9 10 10 9 8 7 7 7 8 9 9 8 8 8 8 9 11 12 15 17 18 19 19 19 20 20 19 18 19 19 18 18 17 16 15 14 13 12 12 11 10 10 10 10 8 7 7 5 4 4 5 5 5 4
4 3 2 4 7 8 6 6 8 9 10 13 15 15 13 11 10 10 9 8 9 11 12 12 12 9 6 5 6 6 7 8 9 9 9 8 8 8 8 8 7 7 7 8 8 7 7 8 10 12 15 16 17 18 19 18 19 20 21 20 20 19 18 18 17 17 16 15 14 14 13 12 11 11 11 10 9 8 7 6 5 5 5 6 5 5
6 6 5 5 7 7 3 3 7 9 10 10 8 5 4 5 7 8 7 7 9 9 9 7 6 6 6 4 5 6 7 7 7 7 8 8 9 9 8 8 8 8 7 6 6 6 6 7 9 12 14 15 16 17 18 19 20 21 21 21 21 20 20 19 17 17 16 15 15 15 13 13 12 12 12 11 10 10 8 7 6 6 6 6 6 6
6 7 7 5 7 8 3 1 6 10 9 4 3 6 2 4 6 6 6 7 7 8 8 8 8 8 7 6 6 6 6 6 7 7 7 7 7 8 8 9 8 7 7 6 6 5 4 5 7 9 11 12 14 16 17 18 19 18 19 19 19 19 20 19 18 17 16 16 16 15 14 14 14 13 12 12 12 11 9 8 7 7 7 7 7 7
7 7 7 5 6 8 5 4 7 8 3 2 3 3 1 4 5 6 7 8 6 8 11 11 10 9 7 5 4 4 5 6 5 5 6 6 5 6 7 7 7 6 6 5 4 4 3 4 6 7 8 10 11 14 16 17 17 17 18 19 19 19 19 19 18 17 17 17 17 16 15 15 15 14 14 13 13 12 10 9 9 8 8 8 7 7
8 7 6 6 6 7 6 6 7 5 4 4 4 2 2 3 5 5 7 6 4 5 9 10 9 8 5 4 4 4 5 6 4 2 3 4 4 5 6 6 6 5 5 4 4 3 2 3 4 6 8 10 12 14 15 16 17 17 18 20 20 20 19 19 18 18 18 18 18 17 17 16 16 15 15 15 14 13 12 11 10 9 9 9 8 8
8 7 6 6 6 6 7 8 7 8 9 8 4 4 4 5 4 1 6 5 2 2 5 7 8 7 5 4 4 4 5 7 6 2 3 5 4 3 5 5 6 6 5 4 3 3 2 2 4 6 9 11 12 13 14 15 16 16 17 19 20 20 19 19 19 19 19 19 19 19 18 17 17 17 16 16 16 14 13 13 12 11 10 10 9 9
8 8 6 6 5 5 6 8 8 9 9 4 2 6 5 3 2 1 7 4 4 4 2 3 5 5 5 5 4 4 6 7 6 1 5 7 6 4 5 5 4 4 4 3 3 3 2 3 5 7 9 11 11 12 13 14 16 16 17 18 19 19 19 19 19 20 20 20 20 20 19 18 18 18 17 17 17 15 15 14 13 12 12 11 11 10
7 7 6 6 6 6 7 7 7 7 7 4 1 6 7 3 2 3 7 2 5 5 1 1 2 3 4 3 3 4 6 6 4 1 6 8 7 6 6 5 5 4 3 2 2 2 2 3 5 7 9 10 11 12 13 15 16 16 17 18 19 20 20 21 21 21 21 21 20 20 20 19 19 19 18 18 17 16 16 15 14 13 13 12 12 11
6 5 5 7 8 7 8 8 6 6 6 5 3 4 6 4 1 6 7 1 5 3 1 1 3 3 3 3 3 5 6 5 5 5 7 9 9 7 6 5 4 4 3 2 0 2 2 3 5 7 8 9 10 12 14 15 16 16 16 17 19 21 22 23 22 21 20 20 20 20 20 19 19 19 19 18 18 17 16 15 15 14 14 13 13 12
5 5 5 7 8 8 8 8 7 6 6 5 5 5 6 5 3 6 4 2 4 2 1 2 4 4 3 4 4 5 6 6 6 7 8 9 9 8 8 7 6 4 2 2 1 2 3 4 5 5 6 8 10 13 14 14 15 16 16 16 19 22 24 23 22 21 20 20 21 21 20 20 20 20 19 19 18 18 17 16 16 16 16 15 14 13
5 5 5 6 7 7 7 7 7 6 4 1 3 6 7 5 4 3 2 4 4 4 3 2 5 5 5 7 7 7 8 9 9 9 9 10 10 9 9 10 9 6 3 1 0 2 2 3 4 5 6 8 11 13 13 14 15 15 15 17 20 22 21 20 19 20 21 21 21 21 20 20 20 20 19 19 19 19 18 17 17 17 17 16 15 14
5 5 5 6 6 6 6 6 7 5 1 6 8 7 6 6 3 5 5 4 4 5 5 4 5 6 6 7 8 9 10 11 12 11 11 11 11 11 11 11 11 10 7 4 2 2 2 3 3 5 6 8 10 12 12 14 15 14 15 18 19 18 18 18 19 20 21 21 21 21 20 20 21 20 19 19 20 20 19 19 18 17 17 16 16 16
6 6 7 5 4 5 6 6 4 3 2 8 8 3 5 8 5 6 7 7 5 6 6 6 6 7 7 7 9 10 11 12 12 12 12 12 12 11 11 11 12 12 11 8 5 3 4 5 4 5 6 8 10 11 12 14 14 14 16 17 15 15 17 17 18 19 20 21 21 21 21 20 21 21 19 20 21 20 20 20 19 18 18 17 17 16
5 4 5 5 4 5 7 5 2 2 1 6 7 5 5 8 7 6 6 7 8 7 6 7 9 10 9 9 9 10 11 12 12 12 12 12 12 12 12 12 13 13 12 11 8 5 6 6 5 5 7 8 10 11 12 13 14 15 16 15 13 15 17 18 18 19 20 20 21 21 21 20 20 21 20 20 21 21 20 20 20 19 18 18 18 17
5 3 2 4 5 6 8 9 8 7 7 8 9 8 8 8 6 5 6 8 8 9 9 9 9 11 11 12 11 11 12 13 13 13 12 12 12 12 12 12 13 13 13 12 10 8 7 6 6 6 7 8 10 11 12 13 15 16 15 13 13 16 17 18 19 19 19 20 20 21 21 20 20 21 20 21 21 20 20 20 20 19 19 19 19 18
9 7 7 8 9 7 6 6 7 9 9 8 7 7 8 9 8 7 8 8 9 11 12 11 12 13 13 13 13 13 13 14 14 14 13 12 12 12 10 10 11 12 12 13 11 8 7 7 8 9 9 9 11 12 12 13 15 14 13 12 14 16 17 18 19 19 19 20 20 21 22 21 20 21 21 21 21 21 20 20 20 19 20 19 19 19
5 4 6 10 11 10 9 6 5 7 8 6 5 5 7 10 11 10 8 7 9 13 14 14 14 14 13 14 14 14 15 15 14 14 13 12 12 11 10 11 12 12 13 12 10 8 8 9 11 11 11 11 11 12 13 13 14 13 13 13 14 16 16 18 19 19 20 20 20 20 21 22 21 21 21 21 22 22 21 21 21 21 21 21 21 20
6 4 7 10 11 11 12 11 10 10 10 9 9 9 9 9 11 11 10 10 13 16 17 16 15 13 14 15 15 15 15 15 14 14 14 13 12 12 12 13 14 14 14 13 11 9 10 11 12 13 13 13 11 11 13 14 14 14 14 14 15 16 17 18 19 19 19 20 20 20 20 21 22 22 21 21 22 22 21 21 21 21 20 21 21 20
9 10 10 10 10 10 10 9 9 10 10 9 9 11 11 10 11 13 15 15 16 16 16 16 15 14 15 16 16 15 15 14 13 14 14 13 13 14 16 16 15 15 16 14 11 10 11 12 12 13 14 14 12 12 13 14 14 14 15 15 16 17 18 18 18 19 19 19 19 19 20 20 21 22 22 21 21 22 21 21 22 23 21 20 21 22
10 12 11 10 11 12 11 11 11 11 11 11 12 14 14 13 14 16 16 16 16 15 15 16 17 16 16 17 18 17 15 14 14 14 13 13 14 16 18 17 17 16 17 16 13 11 12 13 13 14 15 14 13 13 14 14 14 15 16 17 18 19 19 19 18 19 19 20 20 21 21 21 21 22 22 21 21 22 21 20 22 24 24 22 21 23
Wind_Direction
247 204 184 56 72 81 39 350 327 326 255 182 186 197 192 202 173 130 107 116 212 246 232 243 276 254 239 203 173 176 181 196 202 204 212 204 201 193 182 183 180 180 167 157 164 160 151 147 140 152 196 169 137 134 130 129 124 119 118 114 111 104 96 89 79 71 61 54 46 42 38 43 48 39 41 43 30 19 12 5 359 354 349 343 336 326
246 226 75 38 36 47 35 98 232 203 170 182 197 190 175 216 158 126 150 136 163 246 210 221 263 240 248 250 186 184 198 207 205 212 216 203 203 200 193 191 183 180 167 162 169 169 166 162 154 160 180 175 152 145 140 134 128 126 125 120 119 112 101 95 88 79 64 52 42 36 31 31 44 41 37 37 28 19 15 9 7 1 353 350 345 340
216 101 66 40 28 76 123 180 195 154 175 193 180 243 192 152 129 129 160 141 160 237 218 232 260 244 239 258 218 204 214 211 199 214 221 207 202 198 198 194 183 180 172 170 175 176 176 172 166 167 176 177 162 151 145 139 137 134 130 128 125 122 114 103 94 84 74 65 61 61 52 44 57 54 42 34 27 20 19 18 17 8 358 357 351 348
166 69 54 34 24 198 167 177 201 160 174 207 157 277 279 140 169 168 165 177 194 243 293 276 261 255 225 240 236 227 230 220 202 211 215 213 211 200 200 196 185 183 178 179 179 177 179 176 172 174 177 176 167 159 152 147 146 141 139 138 130 126 120 108 99 84 75 73 70 75 78 70 72 64 47 39 30 22 21 21 19 11 2 5 2 356
63 58 37 11 220 252 216 183 206 193 164 198 225 273 14 158 206 211 136 166 198 226 263 268 253 235 208 227 232 222 226 225 218 220 217 213 209 198 202 204 194 189 185 183 181 178 181 179 177 179 179 177 173 166 159 154 151 147 145 142 131 123 117 108 99 81 69 65 57 61 79 75 72 61 41 32 27 21 18 17 15 11 8 11 10 6
73 63 354 282 244 259 245 197 212 263 185 159 230 292 344 170 181 135 154 181 213 207 206 238 256 221 178 216 231 211 218 222 217 226 229 215 201 198 201 202 195 190 190 189 185 181 181 181 181 180 179 179 175 166 158 153 151 151 148 140 130 120 113 107 96 80 67 65 56 53 60 55 55 51 37 27 21 13 10 9 8 9 12 16 15 15
85 87 273 286 279 241 238 206 173 276 278 143 150 241 211 185 172 168 191 205 246 164 155 221 264 300 184 209 218 223 235 228 215 224 232 218 200 198 199 201 196 190 191 192 190 186 183 184 182 179 180 180 172 162 155 152 153 154 147 139 132 122 115 111 101 86 73 70 64 61 63 55 47 42 36 30 17 6 4 6 8 9 13 19 21 20
93 126 188 263 268 232 231 159 141 249 287 71 118 202 208 203 191 189 210 225 283 6 171 214 250 289 273 199 177 220 245 242 232 228 225 219 203 192 196 201 197 193 190 187 188 190 188 185 181 178 179 177 167 159 156 156 158 156 149 142 136 128 121 117 110 94 81 75 72 68 65 60 49 37 33 31 18 7 6 9 12 14 18 25 25 18
84 285 106 261 250 235 21 45 66 272 292 86 133 219 214 220 226 219 229 238 274 284 238 203 217 265 280 145 143 204 245 252 247 234 222 219 203 185 194 201 195 194 191 185 186 188 186 184 182 179 176 170 163 162 162 160 160 158 151 143 137 135 125 118 115 101 86 79 77 69 57 53 41 32 26 23 16 7 9 14 13 14 22 29 25 17
106 357 4 296 275 358 45 43 32 327 350 97 144 204 200 229 242 237 249 257 252 264 270 208 199 254 297 282 152 190 244 267 256 229 215 217 205 186 190 196 194 193 189 185 186 185 183 182 181 176 170 165 162 164 165 161 161 160 152 146 142 140 128 120 119 105 87 77 71 60 50 43 31 27 21 17 15 9 10 14 11 10 19 27 24 18
109 96 286 295 334 24 55 64 49 9 26 133 167 183 180 204 225 231 249 264 255 249 276 269 219 253 291 285 166 128 328 327 312 239 154 207 211 198 193 191 189 191 189 186 184 181 177 175 173 171 168 165 163 164 164 161 165 164 154 149 145 141 135 127 119 104 88 75 69 59 46 35 27 23 15 10 8 8 10 11 7 6 13 22 22 17
153 176 168 92 29 355 164 129 99 81 172 204 219 209 199 202 204 227 221 223 253 251 85 56 249 256 267 259 309 348 335 298 286 296 42 200 215 210 205 199 188 185 188 188 182 174 169 168 169 170 169 166 164 164 164 164 169 167 157 148 144 144 142 129 114 106 94 82 73 58 41 30 23 13 7 3 1 4 7 8 8 6 8 15 15 15
177 149 114 117 135 258 251 205 152 163 201 237 251 237 239 239 222 238 234 228 257 277 85 82 235 252 268 272 304 331 335 320 309 305 309 291 239 220 213 212 201 187 185 184 178 169 167 168 170 171 170 168 167 167 167 169 171 166 156 147 145 147 143 128 115 109 103 93 76 52 35 23 16 7 359 353 355 2 5 8 11 9 8 10 9 12
165 124 138 171 157 188 262 250 213 189 201 229 254 256 257 263 263 263 263 261 268 54 85 100 260 264 269 284 335 5 17 13 348 316 308 290 253 237 222 215 210 196 185 179 173 170 171 171 171 173 173 169 169 169 169 170 171 166 155 146 149 150 142 130 120 115 113 106 82 52 30 14 7 4 358 352 356 6 11 12 14 13 12 11 9 7
275 138 141 200 104 167 243 275 319 307 241 241 283 281 270 271 283 286 290 294 302 339 81 167 241 276 296 12 337 312 313 293 281 280 285 261 223 219 222 211 199 193 188 182 178 178 178 175 173 174 175 171 168 168 170 170 171 166 154 147 154 153 141 132 129 125 120 112 89 54 24 11 7 6 4 355 1 16 23 21 18 16 13 9 5 358
277 107 76 55 53 282 242 6 327 289 252 232 276 266 268 291 292 294 331 330 319 307 280 204 240 286 308 312 296 286 281 260 246 244 235 213 189 189 199 200 192 190 190 189 190 187 181 177 175 175 174 171 167 167 169 172 173 166 151 146 156 153 142 138 138 133 124 115 90 53 30 29 39 32 14 14 31 39 37 29 23 20 14 6 360 351
271 123 97 108 124 72 319 170 291 289 277 196 233 251 42 13 302 285 285 67 270 275 272 233 265 275 270 267 232 270 283 190 155 184 180 156 171 183 188 189 191 192 192 194 196 192 184 179 177 177 175 170 166 168 171 173 173 163 147 146 157 156 148 145 141 136 130 119 91 57 45 55 66 63 41 47 53 48 42 38 33 27 19 10 3 356
302 224 132 152 125 95 64 235 198 286 298 266 254 357 67 52 275 277 273 249 251 269 270 255 278 288 274 221 152 199 241 100 113 133 130 145 174 188 185 181 181 181 184 190 191 190 185 182 180 179 177 173 168 169 171 170 168 159 147 149 162 164 158 152 145 140 133 121 95 63 54 69 77 75 67 65 61 54 52 51 43 35 26 16 7 0
299 281 138 140 133 121 162 224 192 147 275 291 313 355 278 267 246 233 266 276 276 283 283 266 270 276 264 253 48 33 91 39 13 38 149 176 180 191 183 169 167 167 173 182 185 185 184 185 184 180 178 174 170 170 169 167 165 158 150 154 168 170 163 156 150 145 138 126 102 75 65 82 87 84 80 76 73 71 68 57 44 34 27 19 10 3
263 291 128 141 152 164 191 226 237 177 163 215 244 228 249 287 284 269 278 287 284 284 285 282 271 260 255 3 6 345 25 2 340 338 317 294 180 199 184 162 164 165 173 180 182 183 182 186 186 181 179 175 171 170 167 166 168 161 153 159 171 172 166 160 156 151 143 132 110 94 94 108 107 101 93 88 89 89 76 59 43 31 25 20 11 3
223 275 289 162 164 208 211 209 315 311 281 239 245 242 235 247 272 279 273 262 271 279 283 286 278 270 92 77 330 325 3 350 335 331 321 324 326 254 160 152 164 164 177 182 181 184 179 183 185 181 180 178 173 172 169 168 170 163 159 167 174 174 172 167 162 155 145 136 120 110 118 134 135 126 112 109 109 99 79 60 43 31 27 20 12 6
267 256 283 275 222 241 22 46 354 319 306 290 285 284 275 263 261 265 258 240 244 264 274 279 279 280 105 106 306 323 358 337 336 333 319 321 331 329 148 175 177 172 184 183 181 182 175 178 182 179 180 181 178 177 173 171 172 167 166 174 178 179 178 171 164 157 147 141 130 123 135 149 150 142 132 131 127 110 87 67 50 37 31 21 14 13
323 273 275 278 272 288 56 57 14 277 255 269 281 293 290 277 266 265 267 264 249 254 265 272 274 280 138 141 170 174 266 334 338 326 313 319 341 347 338 205 194 189 192 185 182 182 175 177 182 181 183 184 183 182 178 175 174 170 171 177 180 182 182 174 164 156 149 144 137 134 149 162 161 155 150 148 140 121 99 82 65 49 34 23 18 24
272 272 276 273 270 202 145 131 125 157 201 229 243 302 299 283 282 286 288 293 281 263 263 263 264 262 127 129 151 160 177 277 270 290 310 321 337 346 343 286 211 202 197 191 184 181 178 179 182 185 185 186 187 185 181 179 176 171 174 181 182 182 182 175 163 158 152 148 145 146 157 169 170 164 163 160 148 128 110 90 74 52 30 24 29 47
257 282 294 280 278 248 206 186 170 184 214 261 294 351 312 291 299 295 279 275 265 263 267 264 265 268 119 137 188 196 210 265 266 263 315 316 325 341 352 352 214 205 204 199 191 185 184 183 187 189 187 187 188 186 183 181 177 173 177 184 184 181 179 175 167 161 156 152 152 156 163 172 174 170 171 169 152 135 116 89 72 45 25 29 49 71
278 295 290 282 285 280 275 282 288 287 300 299 284 259 264 279 297 293 276 262 255 263 266 255 261 274 186 175 230 268 278 285 286 282 287 297 313 327 331 326 285 221 210 208 201 194 191 192 193 191 189 189 189 187 186 183 180 178 178 183 186 181 177 176 171 164 159 157 157 162 167 175 178 175 175 170 155 140 121 94 73 35 29 45 73 88
271 270 263 276 282 282 292 309 340 334 303 292 287 272 265 273 284 283 272 264 269 278 267 252 263 276 265 247 266 286 292 293 289 286 289 295 303 309 311 310 297 258 220 209 206 202 199 198 196 192 190 191 192 191 189 187 185 182 179 182 185 182 177 176 172 165 161 161 162 166 172 178 181 179 176 173 162 151 145 129 82 34 46 75 89 98
263 261 242 259 270 276 293 303 314 300 284 286 289 282 276 272 264 260 260 266 280 283 268 265 275 277 273 275 281 289 297 298 294 293 297 299 298 297 294 285 273 258 228 208 206 206 205 202 197 193 192 192 194 194 193 192 190 185 182 183 185 182 179 176 172 167 164 164 166 169 174 179 182 180 176 175 167 158 154 139 88 52 81 99 101 103
271 268 213 235 264 271 278 277 268 268 272 277 279 278 276 268 258 256 260 266 270 266 267 281 286 279 280 289 291 294 299 297 296 300 300 295 289 287 283 270 259 252 236 218 211 208 206 205 199 194 193 193 195 196 195 195 193 188 184 185 184 182 179 176 173 169 166 168 169 170 174 176 180 181 178 177 174 162 155 143 107 92 106 112 112 109
276 264 172 221 263 268 267 268 267 267 271 272 270 269 267 265 264 263 264 268 268 267 272 280 281 278 282 288 289 292 293 293 295 296 292 286 284 285 282 271 262 257 248 235 224 214 207 204 198 194 194 195 196 197 196 196 195 190 185 184 183 181 179 178 175 169 168 172 172 171 173 174 178 183 181 181 179 166 158 147 123 117 122 124 122 118
263 256 167 225 264 266 262 262 261 265 274 276 273 271 269 268 268 265 263 265 264 266 271 274 275 276 275 275 280 285 287 288 285 284 284 284 283 281 277 274 271 266 260 252 242 228 212 203 197 194 196 198 198 196 194 196 196 190 185 183 180 178 179 180 176 170 171 175 173 171 173 172 176 184 185 184 180 169 163 152 135 131 133 132 131 129
245 252 227 244 267 273 262 249 263 278 281 275 269 265 262 265 270 271 270 262 256 266 276 271 267 273 278 276 281 283 282 281 283 289 295 294 292 283 271 269 272 271 270 264 255 243 222 207 199 198 200 200 197 194 191 193 193 188 184 180 176 175 179 183 179 172 172 176 174 172 174 173 176 182 186 187 180 171 166 157 145 140 140 140 139 139
258 264 265 258 270 285 268 226 275 290 280 274 271 242 241 284 292 284 279 260 246 253 268 267 268 299 321 316 294 286 286 294 306 315 314 306 300 289 272 265 267 269 275 278 272 261 238 220 211 208 206 201 195 192 191 190 190 188 183 177 173 174 179 183 181 175 174 177 176 175 175 174 177 182 186 187 181 172 168 164 155 147 145 146 145 145
260 265 272 271 274 283 278 218 285 282 271 289 72 115 132 316 300 287 292 283 252 234 245 266 284 299 300 287 281 291 302 316 329 336 336 326 309 296 283 274 270 272 281 287 285 276 253 231 224 216 209 203 195 189 189 191 191 188 182 177 175 176 179 182 181 177 177 179 178 177 176 176 178 182 186 186 181 175 173 169 159 152 151 151 150 151
255 256 262 266 268 276 285 284 277 273 273 53 100 151 237 294 276 274 288 289 271 242 244 257 266 267 273 280 287 294 302 311 322 339 350 346 322 306 296 285 280 280 286 292 293 290 269 236 228 215 201 196 188 184 187 191 189 185 184 182 181 181 181 181 180 179 180 181 180 178 178 179 180 182 185 186 182 178 177 170 161 156 157 155 155 155
249 248 254 258 257 265 275 264 261 284 322 310 265 209 164 218 225 261 292 296 303 273 251 244 245 253 270 285 277 281 301 305 289 294 1 3 338 316 307 305 307 303 300 308 308 302 287 238 218 201 186 181 181 182 185 187 185 184 186 186 185 185 185 184 183 183 182 181 181 180 180 180 180 182 185 185 183 182 178 171 166 163 161 160 159 158
240 244 245 247 244 252 268 265 269 289 295 286 255 171 169 197 186 302 315 314 21 357 274 244 242 254 266 266 267 289 302 291 266 219 66 36 12 336 317 315 315 309 308 308 299 289 276 228 193 182 177 175 177 181 183 183 183 184 186 188 190 191 190 188 186 185 183 183 182 181 181 181 181 182 185 185 185 184 179 173 170 167 165 165 163 161
228 235 234 239 233 234 263 273 276 279 284 297 140 156 178 203 144 344 303 292 105 75 351 258 239 241 247 255 274 290 288 281 265 183 58 28 13 359 342 335 332 323 312 293 280 270 235 196 178 174 173 173 176 180 181 180 181 183 187 191 194 194 192 191 189 186 185 185 184 181 181 182 182 182 184 186 186 184 179 176 173 170 169 169 166 164
215 229 232 240 240 234 251 266 268 270 285 316 111 159 166 172 166 278 285 264 108 89 56 278 266 246 243 263 288 288 284 280 275 342 30 11 354 347 344 346 357 355 335 291 265 252 207 178 173 170 169 172 176 178 177 178 180 185 191 193 194 194 194 194 192 188 187 186 184 182 181 181 183 183 185 187 187 184 182 179 174 172 171 170 169 165
203 218 219 231 242 239 243 256 265 265 276 297 279 183 158 152 219 278 271 202 93 73 91 273 295 286 276 283 279 274 280 286 298 332 353 343 329 329 328 328 345 353 355 9 286 206 187 177 174 171 171 174 175 175 176 178 183 189 193 194 196 197 198 199 196 190 186 184 182 181 181 181 183 184 185 187 186 185 186 183 177 173 172 172 172 168
225 224 221 236 250 241 235 249 262 265 277 280 252 197 151 151 238 265 267 76 57 11 349 270 282 290 291 285 276 276 290 304 311 317 321 314 312 318 314 309 314 317 339 16 19 199 188 181 178 177 175 172 170 173 177 181 186 192 195 196 200 204 205 203 197 188 183 182 182 180 179 181 183 184 186 187 186 186 189 188 180 175 175 175 174 171
242 237 227 235 251 246 242 254 258 267 304 315 185 161 155 184 236 270 351 27 357 323 319 278 276 292 290 279 279 283 290 298 301 304 308 305 301 302 301 302 301 296 295 352 314 218 208 187 179 181 178 168 171 177 180 183 189 193 196 201 206 209 209 204 194 185 181 182 182 179 179 180 181 182 185 187 186 187 191 191 185 180 179 179 177 173
252 253 246 234 236 244 245 244 249 269 46 132 141 139 172 214 293 351 328 315 319 311 304 285 281 296 295 288 289 287 286 289 290 293 300 301 296 292 289 289 291 289 286 286 262 219 232 240 210 194 184 175 179 183 183 188 193 195 201 208 211 209 206 201 192 184 180 182 181 179 178 179 179 182 185 187 188 190 191 192 190 186 184 183 179 177
248 243 257 252 229 235 241 231 240 300 126 163 170 162 203 228 277 320 302 298 306 299 293 293 296 300 299 299 302 300 294 289 285 285 290 294 294 290 285 282 281 280 279 279 268 224 229 251 238 204 193 188 188 190 191 194 197 201 209 214 211 205 201 198 191 183 180 181 181 178 178 178 180 182 186 188 189 192 194 194 191 189 188 187 184 183
239 239 276 276 244 243 261 262 266 22 128 195 225 269 264 253 267 283 286 293 297 295 293 292 297 302 302 299 302 303 299 294 290 287 288 290 290 288 283 280 277 274 273 273 266 239 232 247 244 216 205 200 196 197 199 199 201 208 214 214 206 200 197 194 189 184 181 181 180 178 177 179 181 184 187 189 190 193 195 195 192 191 191 191 190 190
255 255 286 281 269 267 267 259 253 257 255 245 251 267 275 274 278 285 281 278 283 292 294 289 290 297 299 299 301 299 298 298 296 293 290 289 287 283 280 279 275 271 268 267 262 245 230 239 245 232 220 211 204 204 206 205 208 213 215 209 201 197 194 192 190 187 183 182 181 179 178 179 183 186 189 191 193 195 196 195 194 194 193 194 195 195
262 257 255 260 265 267 258 240 237 247 255 259 268 279 282 278 271 266 267 272 283 291 294 294 294 292 292 295 296 294 295 296 295 294 293 290 282 274 271 275 275 271 268 267 262 245 227 231 240 238 233 223 211 208 210 212 215 217 213 204 198 195 193 193 192 189 187 185 182 179 180 182 184 186 189 192 195 198 198 197 197 198 197 198 198 198
277 271 260 258 256 257 262 265 258 254 254 255 263 270 271 271 268 261 258 272 289 292 291 291 291 290 291 293 293 292 292 292 291 292 293 290 282 271 263 268 272 270 270 269 258 236 227 236 242 242 241 234 219 210 211 215 217 216 210 202 197 193 192 193 192 191 190 187 183 182 184 185 184 186 190 193 196 200 200 198 199 201 202 203 201 200
287 275 266 271 272 269 270 271 271 271 267 256 251 253 253 260 271 276 277 282 287 288 287 286 284 287 292 293 291 289 288 289 290 290 290 289 285 273 262 264 268 268 269 269 255 234 232 242 244 241 242 241 229 214 211 215 216 211 207 203 197 192 191 191 192 192 191 188 186 185 185 186 187 189 192 194 198 202 204 202 202 203 205 207 207 205
267 262 265 273 272 266 269 274 279 282 280 274 277 283 282 279 280 281 282 282 281 282 285 287 287 287 288 288 286 282 281 283 286 287 288 288 286 277 268 267 270 269 267 265 255 240 240 244 244 242 243 241 231 217 213 216 214 208 205 203 197 194 193 190 189 191 191 190 190 189 186 187 189 192 194 196 198 202 205 206 206 207 207 208 209 210
256 261 265 267 266 270 281 287 286 284 284 289 294 294 293 290 286 282 280 281 282 284 285 285 285 285 285 285 283 280 279 280 280 282 284 284 283 278 272 270 272 271 268 263 254 244 243 244 243 242 241 237 229 220 216 216 212 208 205 202 198 197 195 191 189 191 192 193 193 190 188 190 192 193 196 198 199 200 203 205 207 209 210 210 209 211